Hourly Data Report for June 20, 2020

OTTAWA INTL A
ONTARIO
Current Station Operator: NAVCAN

45°19'00.000" N
75°40'00.000" W
114.90 m
6106001
71628
YOW

Download Data

Hourly Data (June 2020)
Hourly Data Report for June 20, 2020
TIME Temp Definition
°C
Dew Point Definition
°C
Rel Hum Definition
%
Wind Dir Definition
10's deg

Wind Spd Definition
km/h
Visibility Definition
km
Stn Press Definition
kPa
Hmdx Definition


Wind Chill Definition


Weather Definition


00:00 19.9 15.5 76 23 5 24.1 100.19     LegendNANA
01:00 19.5 15.8 79 21 5 24.1 100.20     Clear
02:00 18.8 15.7 82 18 9 24.1 100.17     LegendNANA
03:00 18.5 15.7 83 18 11 24.1 100.20     LegendNANA
04:00 17.7 15.9 89 21 7 24.1 100.21     Mainly Clear
05:00 18.1 16.0 88 19 9 24.1 100.22     LegendNANA
06:00 20.0 16.9 82 19 9 24.1 100.25 25   LegendNANA
07:00 22.7 17.4 71 20 12 24.1 100.24 28   Clear
08:00 25.1 18.4 66 21 12 24.1 100.27 31   LegendNANA
09:00 27.2 17.9 56 18 12 24.1 100.25 33   LegendNANA
10:00 29.4 18.1 50 20 13 24.1 100.26 35   Clear
11:00 29.8 17.0 46 21 13 24.1 100.24 35   LegendNANA
12:00 31.2 15.4 38 18 17 24.1 100.20 35   LegendNANA
13:00 30.9 15.4 38 19 12 24.1 100.15 35   Clear
14:00 31.5 15.6 38 20 12 24.1 100.10 36   LegendNANA
15:00 31.5 15.3 37 17 7 24.1 100.05 36   LegendNANA
16:00 32.1 15.2 35 21 13 24.1 100.00 36   Mainly Clear
17:00 31.4 15.2 37 23 12 24.1 99.96 35   LegendNANA
18:00 30.7 15.7 40 20 7 24.1 99.95 35   LegendNANA
19:00 26.7 17.4 56 15 13 24.1 99.97 32   Mainly Clear
20:00 25.6 16.5 57 17 9 24.1 99.98 31   LegendNANA
21:00 24.1 15.6 59 17 9 24.1 100.01 28   LegendNANA
22:00 23.1 15.2 61 17 7 24.1 100.03 27   Mainly Clear
23:00 21.9 15.6 67 18 8 24.1 100.03 26   LegendNANA

Notes on Data Quality.

Legend

  • E = Estimated
  • M = Missing
  • NA = Not Available*
  • [empty] = Indicates an unobserved value
Date modified: